Location: East Arcadia
(34.1056°N, 118.0176°W)
Time: 02:12:28
(UTC+00:00)

DELTA 2 R/B (1) - Pass Details

Date: 01 April 2023
Orbit: 790 x 802 km, 39.6° (Epoch: 08 June)

Event Time Altitude Azimuth Distance (km) Brightness Sun altitude
Exits shadow 12:33:25 13° 294° (WNW) 2,185 5.4 -14.3°
Maximum altitude 12:38:31 73° 19° (NNE) 835 3.8 -13.3°
Drops below altitude 10° 12:44:06 10° 104° (ESE) 2,366 7.1 -12.1°
Sets 12:46:36 0° 106° (ESE) 3,296 7.9 -11.6°
